008  
ASUS43 KGRB 190210  
RWRGRB  
 
NORTH-CENTRAL AND NORTHEAST WISCONSIN REGIONAL WEATHER ROUNDUP  
NATIONAL WEATHER SERVICE GREEN BAY WI  
800 PM CST FRI JAN 18 2019  
 
WIZ005-009-010>012-018-019-190300-  
NORTH CENTRAL WISCONSIN  
 
CITY SKY/WX TMP DP RH WIND PRES REMARKS
 
IRONWOOD NOT AVBL  
MANITOWISH WTR CLOUDY 1 -7 71 NE5 30.28R WCI -9  
ARBOR VITAE MOCLDY 3 -5 69 NE6 30.27R WCI -8  
EAGLE RIVER FAIR 1 -7 69 NE9 30.26R WCI -14  
LAND O LAKES FAIR 1 -7 71 N5 30.29R WCI -9  
RHINELANDER CLOUDY 5 -6 60 NE6 30.25R WCI -6  
PHILLIPS CLOUDY 4 -4 69 NE9 30.27R WCI -11  
ANTIGO CLOUDY 9 0 69 NE13 30.24R WCI -7  
TOMAHAWK CLOUDY 6 -3 67 N3 30.26R  
MERRILL CLOUDY 10 -1 62 NE9 30.25S WCI -3  

 
 
WIZ013-073-190300-  
NORTHEAST WISCONSIN  
 
CITY SKY/WX TMP DP RH WIND PRES REMARKS
 
IRON MOUNTAIN FAIR 3 -6 66 N10 30.30R WCI -12  
MARINETTE CLOUDY 9 -2 61 NE13 30.35R WCI -7  
OCONTO CLOUDY 11 2 66 NE13 30.32S WCI -3  

 
 
WIZ017-030-035>037-045-190300-  
CENTRAL WISCONSIN  
 
CITY SKY/WX TMP DP RH WIND PRES REMARKS
 
MEDFORD CLOUDY 10 -1 62 NE9 30.22S WCI -3  
WAUSAU CLOUDY 13 1 59 NE8 30.22R WCI 2  
MOSINEE LGT SNOW 14 5 67 NE10 30.23S WCI 1  
MARSHFIELD LGT SNOW 13 8 81 NE9 30.21S WCI 1  
WISC RAPIDS LGT SNOW 15 6 67 NE8 30.24R WCI 4  
STEVENS POINT LGT SNOW 13 5 72 NE5 30.25R WCI 5  
WAUPACA CLOUDY 19 8 61 NE8 30.26R WCI 9  
SHAWANO CLOUDY 15 3 58 NE13 30.29S WCI 1  
CLINTONVILLE LGT SNOW 15 8 75 E9 30.28R WCI 3  
WAUTOMA FLURRIES 17 8 67 E13 30.24R WCI 4  

 
 
WIZ038-039-048-051-190300-  
FOX VALLEY  
 
CITY SKY/WX TMP DP RH WIND PRES REMARKS
 
NWS GREEN BAY CLOUDY 15 6 67 NE20G29 30.29R WCI -2  
APPLETON FLURRIES 18 7 62 NE14 30.22S WCI 4  
OSHKOSH LGT SNOW 17 9 70 NE12 30.23R WCI 4  
FOND DU LAC CLOUDY 18 7 62 NE10 30.22S WCI 6  

 
 
WIZ022-050-052-190300-  
EAST CENTRAL WISCONSIN  
 
CITY SKY/WX TMP DP RH WIND PRES REMARKS
 
EPHRAIM MOCLDY 9 0 65 NE10G17 30.32R WCI -5  
WASHINGTON ISL MOCLDY 9 1 70 N12G17 30.33R WCI -6  
STURGEON BAY CLOUDY 10 2 69 NE16 30.32R WCI -7  
MANITOWOC NOT AVBL  
SHEBOYGAN LGT SNOW 18 13 80 N10 30.21F WCI 6  

 
 
LMZ563-521-522-541>543-190300-  
LAKESHORE  
 
STATION/POSITION TIME TEMP WIND PRES VSBY WAVE
 
AIR SEA DIR/SP/G HT/PER  
(UTC) (F) (DEG/KT/KT) (MB) (MI) (FT/S)  
SHEBOYGAN LKSHOR 0200 22 40/ 25/ 28 1024.2F  
KEWAUNEE LKSHORE 0148 15 360/ 10/ 16 1024.6R  
NORTHPORT PIER 0149 11 360/ 9/ 11 1027.4R  
CHAMBERS ISLAND 0140 11 10/ 17/ 21 1026.1R  
MENOMINEE LKSHOR 0148 10 35 360/ 19/ 21 1027.0R  

 
 
 
CLICK HERE TO GO TO PREVIOUS BULLETINS.

The Nexlab WI Page Main Text Page